Year,Month,Day,Hour,Minute,Value (Times are PST for temperature in C)
2017,04,25,00,00,9.60
2017,04,25,00,01,9.60
2017,04,25,00,02,9.70
2017,04,25,00,03,9.70
2017,04,25,00,04,9.70
2017,04,25,00,05,9.70
2017,04,25,00,06,9.70
2017,04,25,00,07,9.70
2017,04,25,00,08,9.70
2017,04,25,00,09,9.70
2017,04,25,00,10,9.70
2017,04,25,00,11,9.70
2017,04,25,00,12,9.80
2017,04,25,00,13,9.80
2017,04,25,00,14,9.80
2017,04,25,00,15,9.80
2017,04,25,00,16,9.80
2017,04,25,00,17,9.80
2017,04,25,00,18,9.80
2017,04,25,00,19,9.90
2017,04,25,00,20,9.90
2017,04,25,00,21,9.90
2017,04,25,00,22,9.90
2017,04,25,00,23,9.90
2017,04,25,00,24,9.90
2017,04,25,00,25,9.90
2017,04,25,00,26,9.90
2017,04,25,00,27,9.90
2017,04,25,00,28,9.90
2017,04,25,00,29,9.90
2017,04,25,00,30,9.90
2017,04,25,00,31,9.90
2017,04,25,00,32,9.90
2017,04,25,00,33,9.90
2017,04,25,00,34,9.90
2017,04,25,00,35,9.90
2017,04,25,00,36,9.90
2017,04,25,00,37,9.90
2017,04,25,00,38,9.80
2017,04,25,00,39,9.80
2017,04,25,00,40,9.80
2017,04,25,00,41,9.80
2017,04,25,00,42,9.80
2017,04,25,00,43,9.80
2017,04,25,00,44,9.80
2017,04,25,00,45,9.70
2017,04,25,00,46,9.70
2017,04,25,00,47,9.70
2017,04,25,00,48,9.70
2017,04,25,00,49,9.70
2017,04,25,00,50,9.70
2017,04,25,00,51,9.70
2017,04,25,00,52,9.70
2017,04,25,00,53,9.60
2017,04,25,00,54,9.60
2017,04,25,00,55,9.60
2017,04,25,00,56,9.50
2017,04,25,00,57,9.50
2017,04,25,00,58,9.50
2017,04,25,00,59,9.50
2017,04,25,01,00,9.50
2017,04,25,01,01,9.50
2017,04,25,01,02,9.50
2017,04,25,01,03,9.50
2017,04,25,01,04,9.50
2017,04,25,01,05,9.50
2017,04,25,01,06,9.50
2017,04,25,01,07,9.50
2017,04,25,01,08,9.50
2017,04,25,01,09,9.50
2017,04,25,01,10,9.40
2017,04,25,01,11,9.40
2017,04,25,01,12,9.40
2017,04,25,01,13,9.40
2017,04,25,01,14,9.40
2017,04,25,01,15,9.30
2017,04,25,01,16,9.30
2017,04,25,01,17,9.30
2017,04,25,01,18,9.30
2017,04,25,01,19,9.30
2017,04,25,01,20,9.30
2017,04,25,01,21,9.30
2017,04,25,01,22,9.30
2017,04,25,01,23,9.30
2017,04,25,01,24,9.30
2017,04,25,01,25,9.30
2017,04,25,01,26,9.30
2017,04,25,01,27,9.30
2017,04,25,01,28,9.20
2017,04,25,01,29,9.20
2017,04,25,01,30,9.20
2017,04,25,01,31,9.20
2017,04,25,01,32,9.20
2017,04,25,01,33,9.20
2017,04,25,01,34,9.20
2017,04,25,01,35,9.20
2017,04,25,01,36,9.10
2017,04,25,01,37,9.10
2017,04,25,01,38,9.10
2017,04,25,01,39,9.10
2017,04,25,01,40,9.10
2017,04,25,01,41,9.10
2017,04,25,01,42,9.10
2017,04,25,01,43,9.10
2017,04,25,01,44,9.10
2017,04,25,01,45,9.10
2017,04,25,01,46,9.10
2017,04,25,01,47,9.00
2017,04,25,01,48,9.00
2017,04,25,01,49,9.00
2017,04,25,01,50,8.90
2017,04,25,01,51,8.90
2017,04,25,01,52,8.80
2017,04,25,01,53,8.80
2017,04,25,01,54,8.80
2017,04,25,01,55,8.80
2017,04,25,01,56,8.80
2017,04,25,01,57,8.80
2017,04,25,01,58,8.70
2017,04,25,01,59,8.70
2017,04,25,02,00,8.60
2017,04,25,02,01,8.60
2017,04,25,02,02,8.50
2017,04,25,02,03,8.40
2017,04,25,02,04,8.40
2017,04,25,02,05,8.30
2017,04,25,02,06,8.30
2017,04,25,02,07,8.20
2017,04,25,02,08,8.20
2017,04,25,02,09,8.10
2017,04,25,02,10,8.10
2017,04,25,02,11,8.00
2017,04,25,02,12,7.90
2017,04,25,02,13,7.90
2017,04,25,02,14,7.90
2017,04,25,02,15,7.90
2017,04,25,02,16,8.00
2017,04,25,02,17,8.00
2017,04,25,02,18,8.10
2017,04,25,02,19,8.20
2017,04,25,02,20,8.30
2017,04,25,02,21,8.30
2017,04,25,02,22,8.40
2017,04,25,02,23,8.50
2017,04,25,02,24,8.60
2017,04,25,02,25,8.70
2017,04,25,02,26,8.80
2017,04,25,02,27,8.80
2017,04,25,02,28,8.90
2017,04,25,02,29,9.00
2017,04,25,02,30,9.10
2017,04,25,02,31,9.10
2017,04,25,02,32,9.20
2017,04,25,02,33,9.20
2017,04,25,02,34,9.20
2017,04,25,02,35,9.30
2017,04,25,02,36,9.30
2017,04,25,02,37,9.30
2017,04,25,02,38,9.40
2017,04,25,02,39,9.40
2017,04,25,02,40,9.40
2017,04,25,02,41,9.50
2017,04,25,02,42,9.50
2017,04,25,02,43,9.60
2017,04,25,02,44,9.60
2017,04,25,02,45,9.60
2017,04,25,02,46,9.70
2017,04,25,02,47,9.70
2017,04,25,02,48,9.80
2017,04,25,02,49,9.80
2017,04,25,02,50,9.80
2017,04,25,02,51,9.80
2017,04,25,02,52,9.80
2017,04,25,02,53,9.80
2017,04,25,02,54,9.70
2017,04,25,02,55,9.60
2017,04,25,02,56,9.60
2017,04,25,02,57,9.50
2017,04,25,02,58,9.50
2017,04,25,02,59,9.40
2017,04,25,03,00,9.30
2017,04,25,03,01,9.30
2017,04,25,03,02,9.20
2017,04,25,03,03,9.20
2017,04,25,03,04,9.20
2017,04,25,03,05,9.20
2017,04,25,03,06,9.20
2017,04,25,03,07,9.10
2017,04,25,03,08,9.10
2017,04,25,03,09,9.10
2017,04,25,03,10,9.10
2017,04,25,03,11,9.10
2017,04,25,03,12,9.10
2017,04,25,03,13,9.10
2017,04,25,03,14,9.10
2017,04,25,03,15,9.10
2017,04,25,03,16,9.10
2017,04,25,03,17,9.10
2017,04,25,03,18,9.00
2017,04,25,03,19,9.00
2017,04,25,03,20,9.00
2017,04,25,03,21,9.00
2017,04,25,03,22,9.00
2017,04,25,03,23,8.90
2017,04,25,03,24,8.90
2017,04,25,03,25,8.90
2017,04,25,03,26,8.90
2017,04,25,03,27,8.90
2017,04,25,03,28,8.80
2017,04,25,03,29,8.80
2017,04,25,03,30,8.80
2017,04,25,03,31,8.80
2017,04,25,03,32,8.80
2017,04,25,03,33,8.80
2017,04,25,03,34,8.80
2017,04,25,03,35,8.90
2017,04,25,03,36,8.90
2017,04,25,03,37,8.90
2017,04,25,03,38,8.90
2017,04,25,03,39,8.90
2017,04,25,03,40,8.90
2017,04,25,03,41,9.00
2017,04,25,03,42,9.00
2017,04,25,03,43,9.00
2017,04,25,03,44,8.90
2017,04,25,03,45,8.90
2017,04,25,03,46,8.90
2017,04,25,03,47,8.80
2017,04,25,03,48,8.80
2017,04,25,03,49,8.80
2017,04,25,03,50,8.80
2017,04,25,03,51,8.70
2017,04,25,03,52,8.70
2017,04,25,03,53,8.60
2017,04,25,03,54,8.60
2017,04,25,03,55,8.60
2017,04,25,03,56,8.60
2017,04,25,03,57,8.60
2017,04,25,03,58,8.50
2017,04,25,03,59,8.50
2017,04,25,04,00,8.40
2017,04,25,04,01,8.40
2017,04,25,04,02,8.30
2017,04,25,04,03,8.30
2017,04,25,04,04,8.20
2017,04,25,04,05,8.20
2017,04,25,04,06,8.10
2017,04,25,04,07,8.00
2017,04,25,04,08,8.00
2017,04,25,04,09,7.90
2017,04,25,04,10,7.90
2017,04,25,04,11,7.90
2017,04,25,04,12,7.90
2017,04,25,04,13,7.80
2017,04,25,04,14,7.80
2017,04,25,04,15,7.80
2017,04,25,04,16,7.80
2017,04,25,04,17,7.80
2017,04,25,04,18,7.70
2017,04,25,04,19,7.60
2017,04,25,04,20,7.60
2017,04,25,04,21,7.50
2017,04,25,04,22,7.50
2017,04,25,04,23,7.50
2017,04,25,04,24,7.40
2017,04,25,04,25,7.40
2017,04,25,04,26,7.40
2017,04,25,04,27,7.40
2017,04,25,04,28,7.30
2017,04,25,04,29,7.30
2017,04,25,04,30,7.30
2017,04,25,04,31,7.30
2017,04,25,04,32,7.30
2017,04,25,04,33,7.30
2017,04,25,04,34,7.30
2017,04,25,04,35,7.30
2017,04,25,04,36,7.30
2017,04,25,04,37,7.20
2017,04,25,04,38,7.20
2017,04,25,04,39,7.10
2017,04,25,04,40,7.10
2017,04,25,04,41,7.10
2017,04,25,04,42,7.00
2017,04,25,04,43,7.00
2017,04,25,04,44,7.00
2017,04,25,04,45,7.00
2017,04,25,04,46,7.00
2017,04,25,04,47,7.00
2017,04,25,04,48,7.00
2017,04,25,04,49,7.00
2017,04,25,04,50,7.00
2017,04,25,04,51,7.00
2017,04,25,04,52,7.00
2017,04,25,04,53,7.00
2017,04,25,04,54,7.00
2017,04,25,04,55,7.00
2017,04,25,04,56,7.00
2017,04,25,04,57,7.00
2017,04,25,04,58,7.00
2017,04,25,04,59,7.00
2017,04,25,05,00,7.00
2017,04,25,05,01,7.00
2017,04,25,05,02,7.00
2017,04,25,05,03,7.00
2017,04,25,05,04,7.00
2017,04,25,05,05,7.00
2017,04,25,05,06,7.00
2017,04,25,05,07,7.00
2017,04,25,05,08,7.00
2017,04,25,05,09,7.00
2017,04,25,05,10,7.10
2017,04,25,05,11,7.10
2017,04,25,05,12,7.10
2017,04,25,05,13,7.10
2017,04,25,05,14,7.20
2017,04,25,05,15,7.20
2017,04,25,05,16,7.30
2017,04,25,05,17,7.30
2017,04,25,05,18,7.30
2017,04,25,05,19,7.40
2017,04,25,05,20,7.40
2017,04,25,05,21,7.40
2017,04,25,05,22,7.40
2017,04,25,05,23,7.50
2017,04,25,05,24,7.50
2017,04,25,05,25,7.50
2017,04,25,05,26,7.40
2017,04,25,05,27,7.40
2017,04,25,05,28,7.40
2017,04,25,05,29,7.50
2017,04,25,05,30,7.40
2017,04,25,05,31,7.40
2017,04,25,05,32,7.50
2017,04,25,05,33,7.50
2017,04,25,05,34,7.50
2017,04,25,05,35,7.50
2017,04,25,05,36,7.50
2017,04,25,05,37,7.50
2017,04,25,05,38,7.50
2017,04,25,05,39,7.60
2017,04,25,05,40,7.60
2017,04,25,05,41,7.60
2017,04,25,05,42,7.60
2017,04,25,05,43,7.60
2017,04,25,05,44,7.70
2017,04,25,05,45,7.70
2017,04,25,05,46,7.70
2017,04,25,05,47,7.70
2017,04,25,05,48,7.70
2017,04,25,05,49,7.70
2017,04,25,05,50,7.70
2017,04,25,05,51,7.80
2017,04,25,05,52,7.80
2017,04,25,05,53,7.80
2017,04,25,05,54,7.80
2017,04,25,05,55,7.80
2017,04,25,05,56,7.80
2017,04,25,05,57,7.80
2017,04,25,05,58,7.70
2017,04,25,05,59,7.70
2017,04,25,06,00,7.70
2017,04,25,06,01,7.80
2017,04,25,06,02,7.80
2017,04,25,06,03,7.80
2017,04,25,06,04,7.80
2017,04,25,06,05,7.80
2017,04,25,06,06,7.80
2017,04,25,06,07,7.70
2017,04,25,06,08,7.70
2017,04,25,06,09,7.70
2017,04,25,06,10,7.60
2017,04,25,06,11,7.60
2017,04,25,06,12,7.60
2017,04,25,06,13,7.50
2017,04,25,06,14,7.50
2017,04,25,06,15,7.50
2017,04,25,06,16,7.50
2017,04,25,06,17,7.50
2017,04,25,06,18,7.50
2017,04,25,06,19,7.50
2017,04,25,06,20,7.50
2017,04,25,06,21,7.50
2017,04,25,06,22,7.50
2017,04,25,06,23,7.50
2017,04,25,06,24,7.60
2017,04,25,06,25,7.60
2017,04,25,06,26,7.60
2017,04,25,06,27,7.60
2017,04,25,06,28,7.70
2017,04,25,06,29,7.70
2017,04,25,06,30,7.70
2017,04,25,06,31,7.60
2017,04,25,06,32,7.50
2017,04,25,06,33,7.40
2017,04,25,06,34,7.40
2017,04,25,06,35,7.30
2017,04,25,06,36,7.30
2017,04,25,06,37,7.20
2017,04,25,06,38,7.10
2017,04,25,06,39,7.00
2017,04,25,06,40,7.00
2017,04,25,06,41,7.00
2017,04,25,06,42,7.00
2017,04,25,06,43,7.10
2017,04,25,06,44,7.20
2017,04,25,06,45,7.20
2017,04,25,06,46,7.30
2017,04,25,06,47,7.40
2017,04,25,06,48,7.50
2017,04,25,06,49,7.60
2017,04,25,06,50,7.60
2017,04,25,06,51,7.60
2017,04,25,06,52,7.70
2017,04,25,06,53,7.70
2017,04,25,06,54,7.70
2017,04,25,06,55,7.80
2017,04,25,06,56,7.80
2017,04,25,06,57,7.80
2017,04,25,06,58,7.80
2017,04,25,06,59,7.80
2017,04,25,07,00,7.80
2017,04,25,07,01,7.80
2017,04,25,07,02,7.80
2017,04,25,07,03,7.90
2017,04,25,07,04,7.90
2017,04,25,07,05,7.90
2017,04,25,07,06,7.90
2017,04,25,07,07,8.00
2017,04,25,07,08,8.00
2017,04,25,07,09,8.10
2017,04,25,07,10,8.10
2017,04,25,07,11,8.10
2017,04,25,07,12,8.10
2017,04,25,07,13,8.20
2017,04,25,07,14,8.20
2017,04,25,07,15,8.20
2017,04,25,07,16,8.20
2017,04,25,07,17,8.20
2017,04,25,07,18,8.30
2017,04,25,07,19,8.30
2017,04,25,07,20,8.30
2017,04,25,07,21,8.30
2017,04,25,07,22,8.40
2017,04,25,07,23,8.40
2017,04,25,07,24,8.30
2017,04,25,07,25,8.30
2017,04,25,07,26,8.30
2017,04,25,07,27,8.30
2017,04,25,07,28,8.40
2017,04,25,07,29,8.40
2017,04,25,07,30,8.40
2017,04,25,07,31,8.50
2017,04,25,07,32,8.50
2017,04,25,07,33,8.60
2017,04,25,07,34,8.60
2017,04,25,07,35,8.60
2017,04,25,07,36,8.70
2017,04,25,07,37,8.70
2017,04,25,07,38,8.80
2017,04,25,07,39,8.80
2017,04,25,07,40,8.90
2017,04,25,07,41,8.90
2017,04,25,07,42,8.90
2017,04,25,07,43,9.00
2017,04,25,07,44,9.00
2017,04,25,07,45,9.10
2017,04,25,07,46,9.10
2017,04,25,07,47,9.20
2017,04,25,07,48,9.20
2017,04,25,07,49,9.20
2017,04,25,07,50,9.30
2017,04,25,07,51,9.30
2017,04,25,07,52,9.40
2017,04,25,07,53,9.40
2017,04,25,07,54,9.50
2017,04,25,07,55,9.60
2017,04,25,07,56,9.60
2017,04,25,07,57,9.70
2017,04,25,07,58,9.80
2017,04,25,07,59,9.90
2017,04,25,08,00,10.00
2017,04,25,08,01,10.10
2017,04,25,08,02,10.20
2017,04,25,08,03,10.40
2017,04,25,08,04,10.50
2017,04,25,08,05,10.70
2017,04,25,08,06,10.80
2017,04,25,08,07,10.90
2017,04,25,08,08,11.00
2017,04,25,08,09,11.10
2017,04,25,08,10,11.20
2017,04,25,08,11,11.30
2017,04,25,08,12,11.30
2017,04,25,08,13,11.40
2017,04,25,08,14,11.50
2017,04,25,08,15,11.60
2017,04,25,08,16,11.70
2017,04,25,08,17,11.80
2017,04,25,08,18,11.90
2017,04,25,08,19,11.90
2017,04,25,08,20,11.90
2017,04,25,08,21,11.90
2017,04,25,08,22,11.90
2017,04,25,08,23,11.80
2017,04,25,08,24,11.70
2017,04,25,08,25,11.70
2017,04,25,08,26,11.60
2017,04,25,08,27,11.50
2017,04,25,08,28,11.50
2017,04,25,08,29,11.40
2017,04,25,08,30,11.40
2017,04,25,08,31,11.30
2017,04,25,08,32,11.30
2017,04,25,08,33,11.30
2017,04,25,08,34,11.20
2017,04,25,08,35,11.20
2017,04,25,08,36,11.20
2017,04,25,08,37,11.20
2017,04,25,08,38,11.30
2017,04,25,08,39,11.30
2017,04,25,08,40,11.40
2017,04,25,08,41,11.50
2017,04,25,08,42,11.60
2017,04,25,08,43,11.60
2017,04,25,08,44,11.70
2017,04,25,08,45,11.70
2017,04,25,08,46,11.80
2017,04,25,08,47,11.90
2017,04,25,08,48,11.90
2017,04,25,08,49,11.90
2017,04,25,08,50,11.90
2017,04,25,08,51,11.80
2017,04,25,08,52,11.80
2017,04,25,08,53,11.80
2017,04,25,08,54,11.80
2017,04,25,08,55,11.90
2017,04,25,08,56,11.90
2017,04,25,08,57,11.90
2017,04,25,08,58,11.80
2017,04,25,08,59,11.80
2017,04,25,09,00,11.80
2017,04,25,09,01,11.90
2017,04,25,09,02,11.90
2017,04,25,09,03,12.00
2017,04,25,09,04,12.00
2017,04,25,09,05,12.00
2017,04,25,09,06,12.00
2017,04,25,09,07,11.90
2017,04,25,09,08,11.80
2017,04,25,09,09,11.80
2017,04,25,09,10,11.70
2017,04,25,09,11,11.70
2017,04,25,09,12,11.80
2017,04,25,09,13,11.80
2017,04,25,09,14,11.80
2017,04,25,09,15,11.80
2017,04,25,09,16,11.80
2017,04,25,09,17,11.80
2017,04,25,09,18,11.80
2017,04,25,09,19,11.70
2017,04,25,09,20,11.70
2017,04,25,09,21,11.70
2017,04,25,09,22,11.70
2017,04,25,09,23,11.70
2017,04,25,09,24,11.70
2017,04,25,09,25,11.70
2017,04,25,09,26,11.70
2017,04,25,09,27,11.70
2017,04,25,09,28,11.70
2017,04,25,09,29,11.70
2017,04,25,09,30,11.70
2017,04,25,09,31,11.60
2017,04,25,09,32,11.60
2017,04,25,09,33,11.60
2017,04,25,09,34,11.70
2017,04,25,09,35,11.70
2017,04,25,09,36,11.70
2017,04,25,09,37,11.80
2017,04,25,09,38,11.80
2017,04,25,09,39,11.90
2017,04,25,09,40,11.90
2017,04,25,09,41,11.90
2017,04,25,09,42,11.90
2017,04,25,09,43,11.90
2017,04,25,09,44,12.00
2017,04,25,09,45,12.00
2017,04,25,09,46,12.00
2017,04,25,09,47,12.00
2017,04,25,09,48,12.00
2017,04,25,09,49,12.00
2017,04,25,09,50,11.90
2017,04,25,09,51,11.90
2017,04,25,09,52,11.90
2017,04,25,09,53,11.90
2017,04,25,09,54,11.90
2017,04,25,09,55,11.90
2017,04,25,09,56,11.90
2017,04,25,09,57,11.90
2017,04,25,09,58,11.90
2017,04,25,09,59,11.90
2017,04,25,10,00,11.90
2017,04,25,10,01,11.90
2017,04,25,10,02,11.90
2017,04,25,10,03,11.90
2017,04,25,10,04,11.90
2017,04,25,10,05,12.00
2017,04,25,10,06,12.00
2017,04,25,10,07,12.00
2017,04,25,10,08,11.90
2017,04,25,10,09,11.90
2017,04,25,10,10,11.80
2017,04,25,10,11,11.70
2017,04,25,10,12,11.70
2017,04,25,10,13,11.70
2017,04,25,10,14,11.80
2017,04,25,10,15,11.70
2017,04,25,10,16,11.60
2017,04,25,10,17,11.50
2017,04,25,10,18,11.40
2017,04,25,10,19,11.40
2017,04,25,10,20,11.30
2017,04,25,10,21,11.30
2017,04,25,10,22,11.30
2017,04,25,10,23,11.30
2017,04,25,10,24,11.40
2017,04,25,10,25,11.40
2017,04,25,10,26,11.50
2017,04,25,10,27,11.50
2017,04,25,10,28,11.50
2017,04,25,10,29,11.60
2017,04,25,10,30,11.60
2017,04,25,10,31,11.70
2017,04,25,10,32,11.70
2017,04,25,10,33,11.70
2017,04,25,10,34,11.70
2017,04,25,10,35,11.70
2017,04,25,10,36,11.70
2017,04,25,10,37,11.80
2017,04,25,10,38,11.70
2017,04,25,10,39,11.70
2017,04,25,10,40,11.60
2017,04,25,10,41,11.60
2017,04,25,10,42,11.60
2017,04,25,10,43,11.60
2017,04,25,10,44,11.70
2017,04,25,10,45,11.70
2017,04,25,10,46,11.70
2017,04,25,10,47,11.80
2017,04,25,10,48,11.80
2017,04,25,10,49,11.80
2017,04,25,10,50,11.90
2017,04,25,10,51,11.90
2017,04,25,10,52,11.80
2017,04,25,10,53,11.80
2017,04,25,10,54,11.70
2017,04,25,10,55,11.70
2017,04,25,10,56,11.70
2017,04,25,10,57,11.70
2017,04,25,10,58,11.70
2017,04,25,10,59,11.60
2017,04,25,11,00,11.50
2017,04,25,11,01,11.50
2017,04,25,11,02,11.50
2017,04,25,11,03,11.40
2017,04,25,11,04,11.40
2017,04,25,11,05,11.50
2017,04,25,11,06,11.50
2017,04,25,11,07,11.60
2017,04,25,11,08,11.70
2017,04,25,11,09,11.80
2017,04,25,11,10,11.80
2017,04,25,11,11,11.80
2017,04,25,11,12,11.80
2017,04,25,11,13,11.80
2017,04,25,11,14,11.80
2017,04,25,11,15,11.90
2017,04,25,11,16,11.80
2017,04,25,11,17,11.80
2017,04,25,11,18,11.80
2017,04,25,11,19,11.80
2017,04,25,11,20,11.90
2017,04,25,11,21,12.00
2017,04,25,11,22,12.00
2017,04,25,11,23,12.00
2017,04,25,11,24,12.00
2017,04,25,11,25,12.00
2017,04,25,11,26,12.00
2017,04,25,11,27,12.00
2017,04,25,11,28,12.00
2017,04,25,11,29,12.10
2017,04,25,11,30,12.00
2017,04,25,11,31,12.00
2017,04,25,11,32,11.90
2017,04,25,11,33,11.90
2017,04,25,11,34,11.90
2017,04,25,11,35,11.90
2017,04,25,11,36,11.90
2017,04,25,11,37,11.90
2017,04,25,11,38,11.90
2017,04,25,11,39,11.90
2017,04,25,11,40,11.80
2017,04,25,11,41,11.80
2017,04,25,11,42,11.70
2017,04,25,11,43,11.70
2017,04,25,11,44,11.60
2017,04,25,11,45,11.60
2017,04,25,11,46,11.50
2017,04,25,11,47,11.50
2017,04,25,11,48,11.50
2017,04,25,11,49,11.50
2017,04,25,11,50,11.50
2017,04,25,11,51,11.50
2017,04,25,11,52,11.50
2017,04,25,11,53,11.50
2017,04,25,11,54,11.40
2017,04,25,11,55,11.40
2017,04,25,11,56,11.40
2017,04,25,11,57,11.40
2017,04,25,11,58,11.30
2017,04,25,11,59,11.30
2017,04,25,12,00,11.20
2017,04,25,12,01,11.20
2017,04,25,12,02,11.10
2017,04,25,12,03,11.10
2017,04,25,12,04,11.10
2017,04,25,12,05,11.10
2017,04,25,12,06,11.10
2017,04,25,12,07,11.10
2017,04,25,12,08,11.10
2017,04,25,12,09,11.20
2017,04,25,12,10,11.20
2017,04,25,12,11,11.20
2017,04,25,12,12,11.20
2017,04,25,12,13,11.20
2017,04,25,12,14,11.30
2017,04,25,12,15,11.30
2017,04,25,12,16,11.30
2017,04,25,12,17,11.30
2017,04,25,12,18,11.30
2017,04,25,12,19,11.30
2017,04,25,12,20,11.40
2017,04,25,12,21,11.50
2017,04,25,12,22,11.50
2017,04,25,12,23,11.60
2017,04,25,12,24,11.60
2017,04,25,12,25,11.60
2017,04,25,12,26,11.60
2017,04,25,12,27,11.60
2017,04,25,12,28,11.60
2017,04,25,12,29,11.60
2017,04,25,12,30,11.60
2017,04,25,12,31,11.60
2017,04,25,12,32,11.60
2017,04,25,12,33,11.60
2017,04,25,12,34,11.60
2017,04,25,12,35,11.60
2017,04,25,12,36,11.60
2017,04,25,12,37,11.60
2017,04,25,12,38,11.60
2017,04,25,12,39,11.70
2017,04,25,12,40,11.70
2017,04,25,12,41,11.70
2017,04,25,12,42,11.70
2017,04,25,12,43,11.70
2017,04,25,12,44,11.70
2017,04,25,12,45,11.70
2017,04,25,12,46,11.70
2017,04,25,12,47,11.70
2017,04,25,12,48,11.70
2017,04,25,12,49,11.70
2017,04,25,12,50,11.70
2017,04,25,12,51,11.70
2017,04,25,12,52,11.60
2017,04,25,12,53,11.50
2017,04,25,12,54,11.50
2017,04,25,12,55,11.40
2017,04,25,12,56,11.40
2017,04,25,12,57,11.40
2017,04,25,12,58,11.40
2017,04,25,12,59,11.40
2017,04,25,13,00,11.50
2017,04,25,13,01,11.50
2017,04,25,13,02,11.50
2017,04,25,13,03,11.50
2017,04,25,13,04,11.40
2017,04,25,13,05,11.40
2017,04,25,13,06,11.50
2017,04,25,13,07,11.40
2017,04,25,13,08,11.50
2017,04,25,13,09,11.50
2017,04,25,13,10,11.50
2017,04,25,13,11,11.60
2017,04,25,13,12,11.60
2017,04,25,13,13,11.60
2017,04,25,13,14,11.60
2017,04,25,13,15,11.60
2017,04,25,13,16,11.60
2017,04,25,13,17,11.60
2017,04,25,13,18,11.60
2017,04,25,13,19,11.50
2017,04,25,13,20,11.50
2017,04,25,13,21,11.40
2017,04,25,13,22,11.40
2017,04,25,13,23,11.40
2017,04,25,13,24,11.40
2017,04,25,13,25,11.40
2017,04,25,13,26,11.40
2017,04,25,13,27,11.50
2017,04,25,13,28,11.50
2017,04,25,13,29,11.50
2017,04,25,13,30,11.40
2017,04,25,13,31,11.50
2017,04,25,13,32,11.50
2017,04,25,13,33,11.50
2017,04,25,13,34,11.50
2017,04,25,13,35,11.40
2017,04,25,13,36,11.40
2017,04,25,13,37,11.40
2017,04,25,13,38,11.40
2017,04,25,13,39,11.40
2017,04,25,13,40,11.40
2017,04,25,13,41,11.30
2017,04,25,13,42,11.30
2017,04,25,13,43,11.40
2017,04,25,13,44,11.40
2017,04,25,13,45,11.50
2017,04,25,13,46,11.50
2017,04,25,13,47,11.50
2017,04,25,13,48,11.50
2017,04,25,13,49,11.40
2017,04,25,13,50,11.40
2017,04,25,13,51,11.50
2017,04,25,13,52,11.50
2017,04,25,13,53,11.60
2017,04,25,13,54,11.60
2017,04,25,13,55,11.60
2017,04,25,13,56,11.70
2017,04,25,13,57,11.80
2017,04,25,13,58,11.80
2017,04,25,13,59,11.80
2017,04,25,14,00,11.80
2017,04,25,14,01,11.80
2017,04,25,14,02,11.80
2017,04,25,14,03,11.80
2017,04,25,14,04,11.70
2017,04,25,14,05,11.70
2017,04,25,14,06,11.60
2017,04,25,14,07,11.60
2017,04,25,14,08,11.60
2017,04,25,14,09,11.50
2017,04,25,14,10,11.50
2017,04,25,14,11,11.50
2017,04,25,14,12,11.50
2017,04,25,14,13,11.50
2017,04,25,14,14,11.50
2017,04,25,14,15,11.40
2017,04,25,14,16,11.40
2017,04,25,14,17,11.30
2017,04,25,14,18,11.30
2017,04,25,14,19,11.30
2017,04,25,14,20,11.30
2017,04,25,14,21,11.30
2017,04,25,14,22,11.30
2017,04,25,14,23,11.30
2017,04,25,14,24,11.30
2017,04,25,14,25,11.30
2017,04,25,14,26,11.30
2017,04,25,14,27,11.30
2017,04,25,14,28,11.40
2017,04,25,14,29,11.40
2017,04,25,14,30,11.40
2017,04,25,14,31,11.40
2017,04,25,14,32,11.40
2017,04,25,14,33,11.40
2017,04,25,14,34,11.40
2017,04,25,14,35,11.40
2017,04,25,14,36,11.40
2017,04,25,14,37,11.40
2017,04,25,14,38,11.40
2017,04,25,14,39,11.40
2017,04,25,14,40,11.40
2017,04,25,14,41,11.40
2017,04,25,14,42,11.30
2017,04,25,14,43,11.30
2017,04,25,14,44,11.30
2017,04,25,14,45,11.30
2017,04,25,14,46,11.30
2017,04,25,14,47,11.30
2017,04,25,14,48,11.30
2017,04,25,14,49,11.40
2017,04,25,14,50,11.40
2017,04,25,14,51,11.40
2017,04,25,14,52,11.40
2017,04,25,14,53,11.40
2017,04,25,14,54,11.40
2017,04,25,14,55,11.40
2017,04,25,14,56,11.40
2017,04,25,14,57,11.40
2017,04,25,14,58,11.40
2017,04,25,14,59,11.50
2017,04,25,15,00,11.50
2017,04,25,15,01,11.60
2017,04,25,15,02,11.60
2017,04,25,15,03,11.60
2017,04,25,15,04,11.60
2017,04,25,15,05,11.60
2017,04,25,15,06,11.70
2017,04,25,15,07,11.80
2017,04,25,15,08,11.80
2017,04,25,15,09,11.80
2017,04,25,15,10,11.80
2017,04,25,15,11,11.80
2017,04,25,15,12,11.70
2017,04,25,15,13,11.70
2017,04,25,15,14,11.70
2017,04,25,15,15,11.70
2017,04,25,15,16,11.80
2017,04,25,15,17,11.80
2017,04,25,15,18,11.80
2017,04,25,15,19,11.90
2017,04,25,15,20,11.90
2017,04,25,15,21,11.90
2017,04,25,15,22,11.80
2017,04,25,15,23,11.80
2017,04,25,15,24,11.80
2017,04,25,15,25,11.80
2017,04,25,15,26,11.80
2017,04,25,15,27,11.80
2017,04,25,15,28,11.80
2017,04,25,15,29,11.80
2017,04,25,15,30,11.70
2017,04,25,15,31,11.60
2017,04,25,15,32,11.60
2017,04,25,15,33,11.60
2017,04,25,15,34,11.70
2017,04,25,15,35,11.70
2017,04,25,15,36,11.70
2017,04,25,15,37,11.70
2017,04,25,15,38,11.70
2017,04,25,15,39,11.70
2017,04,25,15,40,11.70
2017,04,25,15,41,11.70
2017,04,25,15,42,11.70
2017,04,25,15,43,11.80
2017,04,25,15,44,11.80
2017,04,25,15,45,11.80
2017,04,25,15,46,11.70
2017,04,25,15,47,11.70
2017,04,25,15,48,11.70
2017,04,25,15,49,11.70
2017,04,25,15,50,11.70
2017,04,25,15,51,11.70
2017,04,25,15,52,11.70
2017,04,25,15,53,11.80
2017,04,25,15,54,11.80
2017,04,25,15,55,11.80
2017,04,25,15,56,11.80
2017,04,25,15,57,11.80
2017,04,25,15,58,11.80
2017,04,25,15,59,11.80
2017,04,25,16,00,11.80
2017,04,25,16,01,11.80
2017,04,25,16,02,11.90
2017,04,25,16,03,11.90
2017,04,25,16,04,11.90
2017,04,25,16,05,11.90
2017,04,25,16,06,11.90
2017,04,25,16,07,11.90
2017,04,25,16,08,11.90
2017,04,25,16,09,12.00
2017,04,25,16,10,12.00
2017,04,25,16,11,11.90
2017,04,25,16,12,11.90
2017,04,25,16,13,11.90
2017,04,25,16,14,11.90
2017,04,25,16,15,11.80
2017,04,25,16,16,11.80
2017,04,25,16,17,11.80
2017,04,25,16,18,11.70
2017,04,25,16,19,11.70
2017,04,25,16,20,11.60
2017,04,25,16,21,11.60
2017,04,25,16,22,11.50
2017,04,25,16,23,11.50
2017,04,25,16,24,11.50
2017,04,25,16,25,11.40
2017,04,25,16,26,11.40
2017,04,25,16,27,11.30
2017,04,25,16,28,11.30
2017,04,25,16,29,11.30
2017,04,25,16,30,11.30
2017,04,25,16,31,11.30
2017,04,25,16,32,11.30
2017,04,25,16,33,11.20
2017,04,25,16,34,11.20
2017,04,25,16,35,11.20
2017,04,25,16,36,11.20
2017,04,25,16,37,11.20
2017,04,25,16,38,11.20
2017,04,25,16,39,11.10
2017,04,25,16,40,11.10
2017,04,25,16,41,11.10
2017,04,25,16,42,11.00
2017,04,25,16,43,11.00
2017,04,25,16,44,11.00
2017,04,25,16,45,11.00
2017,04,25,16,46,10.90
2017,04,25,16,47,10.90
2017,04,25,16,48,10.90
2017,04,25,16,49,10.90
2017,04,25,16,50,10.80
2017,04,25,16,51,10.80
2017,04,25,16,52,10.80
2017,04,25,16,53,10.80
2017,04,25,16,54,10.80
2017,04,25,16,55,10.70
2017,04,25,16,56,10.70
2017,04,25,16,57,10.70
2017,04,25,16,58,10.70
2017,04,25,16,59,10.60
2017,04,25,17,00,10.60
2017,04,25,17,01,10.50
2017,04,25,17,02,10.50
2017,04,25,17,03,10.40
2017,04,25,17,04,10.40
2017,04,25,17,05,10.40
2017,04,25,17,06,10.40
2017,04,25,17,07,10.30
2017,04,25,17,08,10.30
2017,04,25,17,09,10.20
2017,04,25,17,10,10.20
2017,04,25,17,11,10.20
2017,04,25,17,12,10.10
2017,04,25,17,13,10.10
2017,04,25,17,14,10.10
2017,04,25,17,15,10.00
2017,04,25,17,16,10.00
2017,04,25,17,17,10.00
2017,04,25,17,18,9.90
2017,04,25,17,19,9.90
2017,04,25,17,20,9.90
2017,04,25,17,21,9.90
2017,04,25,17,22,9.80
2017,04,25,17,23,9.80
2017,04,25,17,24,9.80
2017,04,25,17,25,9.70
2017,04,25,17,26,9.80
2017,04,25,17,27,9.80
2017,04,25,17,28,9.70
2017,04,25,17,29,9.70
2017,04,25,17,30,9.70
2017,04,25,17,31,9.70
2017,04,25,17,32,9.70
2017,04,25,17,33,9.70
2017,04,25,17,34,9.70
2017,04,25,17,35,9.70
2017,04,25,17,36,9.70
2017,04,25,17,37,9.70
2017,04,25,17,38,9.70
2017,04,25,17,39,9.70
2017,04,25,17,40,9.70
2017,04,25,17,41,9.70